#timestamp,LO_Frequency,Hit,StdDev 
1524272415.8,286047002.1,N
1524272435.6,286047003.9,N
1524272455.5,286047003.5,N
1524272475.3,286047002.1,N
1524272495.1,286047003.7,N
1524272515.9,286047004.2,N
1524272535.7,286047003.3,N
1524272555.6,286047003.1,N
1524272575.4,286047004.2,N
1524272595.2,286047003.2,N
1524272615.1,286047003.5,N
1524272616.0,286047003.5,N
1524272635.8,286047003.8,N
1524272655.6,286047004.1,N
1524272675.5,286047003.3,N
1524272695.3,286047003.0,N
1524272715.2,286047007.2,Y
1524272735.9,286047005.8,P
1524272755.7,286047002.9,N
1524272775.6,286047001.3,N
1524272795.4,286047004.4,N
1524272815.3,286047004.1,N
1524272835.1,286047002.6,N
1524272836.0,286047002.6,N
1524272855.8,286047003.7,N
1524272875.7,286047001.5,N
1524272895.5,286047004.2,Y
1524272915.3,286047000.3,P
1524272935.2,286047000.1,N
1524272955.0,286047001.2,N
1524272955.9,286047001.2,N
1524272975.8,286047000.2,N
1524272995.6,286047003.8,Y
1524273015.4,286047000.0,P
1524273035.3,286047000.6,N
1524273055.1,286047001.2,N
1524273075.9,286047000.7,N
1524273095.7,286047001.2,N
1524273115.5,286046998.7,Y
1524273135.4,286046996.5,P
1524273155.2,286046998.7,N
1524273175.0,286046999.5,N
1524273176.0,286046999.5,N
1524273195.8,286046997.3,N
1524273215.6,286046995.1,Y
1524273235.5,286046997.6,P
1524273255.3,286046998.1,P
1524273275.1,286046999.4,N
1524273295.9,286046999.3,N
1524273315.7,286046999.2,N
1524273335.6,286047001.2,N
1524273355.4,286047002.1,N
1524273375.2,286047000.0,N
1524273395.1,286047001.0,N
1524273396.0,286047001.0,N
1524273415.8,286046998.5,N
1524273435.7,286047000.3,N
1524273455.5,286046999.4,N
1524273475.3,286046997.4,N
1524273495.2,286046995.4,Y
1524273515.0,286046995.1,P
1524273515.9,286046995.1,N
1524273535.7,286046997.1,N
1524273555.6,286046995.5,N
1524273575.4,286046996.2,N
1524273595.3,286046995.3,Y
1524273615.1,286047002.2,P
1524273616.0,286047002.2,N
1524273635.8,286047001.5,N
1524273655.7,286047002.1,N
1524273675.5,286046999.7,N
1524273695.3,286047000.9,N
1524273715.2,286047000.5,N
1524273735.0,286047000.8,N
1524273735.9,286047000.8,N
1524273755.8,286047001.9,N
1524273775.6,286047000.3,N
1524273795.4,286046998.6,N
1524273815.3,286046998.2,N
1524273835.1,286046999.5,N
1524273855.9,286047001.2,N
1524273875.7,286046998.8,N
1524273895.5,286046999.6,N
1524273915.4,286046998.9,N
1524273935.2,286046998.6,N
1524273955.0,286046998.4,N
1524273955.9,286046998.4,N
1524273975.8,286046998.9,N
1524273995.6,286046998.6,N
1524274015.5,286046998.8,N
1524274035.3,286046996.6,N
1524274055.1,286046997.2,N
1524274075.9,286046999.5,N
1524274095.7,286046999.5,N
1524274115.5,286046999.2,N
1524274135.4,286046997.0,N
1524274155.2,286046999.6,N
1524274175.1,286046997.4,N
1524274176.0,286046997.4,N
1524274195.8,286046996.7,N
1524274215.6,286046997.0,N
1524274235.5,286046999.2,N
1524274255.3,286046997.8,N
1524274275.1,286046997.0,N
1524274295.9,286047001.2,N
1524274315.7,286047000.2,N
1524274335.6,286047000.6,N
1524274355.4,286046999.5,N
1524274375.2,286046996.9,N
1524274395.1,286046998.7,N
1524274396.0,286046998.7,N
1524274415.8,286046996.9,N
1524274435.7,286046996.5,N
1524274455.5,286046999.5,N
1524274475.3,286046998.9,N
1524274495.2,286046996.5,N
1524274515.0,286046998.7,N
1524274515.9,286046998.7,N
1524274535.7,286046997.1,N
1524274555.6,286046999.6,N
1524274575.4,286046999.0,N
1524274595.3,286046997.0,N
1524274615.1,286046997.0,N
1524274616.0,286046997.0,N
1524274635.8,286047001.1,N
1524274655.7,286046999.3,N
1524274675.5,286046994.9,Y
1524274695.3,286046999.0,P
1524274715.2,286046998.8,P
1524274735.0,286046998.7,P
1524274735.9,286046998.7,Y
1524274755.8,286047000.6,P
1524274775.6,286047000.6,N
1524274795.4,286046998.1,N
1524274815.3,286046998.7,N
1524274835.1,286046998.2,N
1524274855.9,286047000.4,N
1524274875.7,286047000.9,N
1524274895.5,286047001.2,N
1524274915.4,286046999.5,N
1524274935.2,286047001.2,N
1524274955.0,286046996.6,N
1524274955.9,286046996.6,N
1524274975.8,286046994.9,Y
1524274995.6,286046997.7,P
1524275015.5,286046999.1,N
1524275035.3,286046999.0,N
1524275055.1,286046997.8,Y
1524275075.9,286046999.0,P
1524275095.7,286046998.4,P
1524275115.6,286047001.1,P
1524275135.4,286047000.3,N
1524275155.2,286047000.5,N
1524275175.1,286047000.6,N
1524275176.0,286047000.6,N
1524275195.8,286046996.6,Y
1524275215.6,286046997.4,P
1524275235.5,286046997.7,N
1524275255.3,286046998.5,N
1524275275.2,286046997.4,N
1524275295.9,286046996.8,Y
1524275315.7,286047000.5,P
1524275335.6,286047000.7,N
1524275355.4,286046999.2,N
1524275375.2,286046998.9,N
1524275395.1,286046999.1,N
1524275396.0,286046999.1,N
1524275415.8,286046996.5,Y
1524275435.7,286046999.0,P
1524275455.5,286046998.1,P
1524275475.3,286047000.2,N
1524275495.2,286047002.1,N
1524275515.0,286047000.5,N
1524275515.9,286047000.5,N
1524275535.8,286047001.0,N
1524275555.6,286047002.6,N
1524275575.4,286047001.3,N
1524275595.3,286047004.3,Y
1524275615.1,286047002.7,P
1524275635.8,286046999.8,N
1524275655.7,286047002.8,N
1524275675.5,286047004.4,Y
1524275695.4,286046999.9,P
1524275715.2,286047002.5,P
1524275735.0,286047000.5,N
1524275735.9,286047000.5,N
1524275755.8,286046999.9,N
1524275775.6,286047000.1,N
1524275795.5,286047000.7,N
1524275815.3,286047000.3,N
1524275835.1,286047000.0,N
1524275855.9,286047002.1,N
1524275875.7,286047000.7,N
1524275895.5,286046998.6,N
1524275915.4,286047001.2,N
1524275935.2,286047000.9,N
1524275955.1,286047000.8,N
1524275956.0,286047000.8,N
1524275975.8,286047001.2,N
1524275995.6,286047000.5,N
